YAHSAT 1B

Last updated on Sat Nov 01 2025 00:02:47 GMT+0000 (Coordinated Universal Time)

1 38245U 12016A 25303.55086690 .00000137 00000+0 00000+0 0 9993 2 38245 0.0563 83.1401 0003058 141.7280 60.1797 1.00266600 43305
UTC large
Height (km)
Speed (km/s)
/
Latitude / Longitude
Inclination (degrees)
Orbital Period (minutes)
Azimuth
Elevation
Range (km)
Doppler Factor

Next 0 passes for location: London (51.5072 / 0.1276)

Sorry there are no passes over London.